Regional Weather Roundup
Issued by NWS

Home | Current Version | Previous Version | Text Only | Print | Product List | Glossary Off
Versions: 1 2 3 4 5 6 7 8 9 10 11 12 13 14 15 16 17 18 19 20 21 22 23 24 25 26 27 28 29 30 31 32 33 34 35 36 37 38 39 40 41 42 43 44 45 46 47 48 49 50

000
ASUS45 KCYS 202310
RWRWY

WYOMING REGIONAL WEATHER ROUNDUP
NATIONAL WEATHER SERVICE CHEYENNE WY
400 PM MST MON FEB 20 2017

NOTE:  "FAIR" INDICATES FEW OR NO CLOUDS BELOW 12,000 FEET
WITH NO SIGNIFICANT WEATHER AND/OR OBSTRUCTIONS TO VISIBILITY.

WYZ001-210000-
YELLOWSTONE NATIONAL PARK

CITY           SKY/WX    TMP DP  RH WIND       PRES   REMARKS
LK YELLOWSTONE   N/A     32  30  92 W9G18     29.84F WCI  24
W YELLOWSTONE  NOT AVBL

$$
WYZ002>013-054>058-071-098>099-210000-
NORTHERN WYOMING

CITY           SKY/WX    TMP DP  RH WIND       PRES   REMARKS
JACKSON        CLOUDY    34  34 100 SW18      29.93S WCI  23
CODY           FAIR      47  31  53 SW13      29.79R
GREYBULL       FAIR      53  28  38 SE14      29.75F
WORLAND        FAIR      52  32  46 SW13      29.76F
SHERIDAN       FAIR      57  27  31 VRB6      29.69F
BUFFALO        FAIR      58  20  22 W16G26    29.75R
GILLETTE       FAIR      57  26  30 SW18G28   29.75F
HULETT         FAIR      57  23  26 SW22      29.77F
NEWCASTLE      FAIR      57  25  28 SW17G24   29.85R

$$
WYZ014>020-022>026-101>103-210000-
CENTRAL WYOMING

CITY           SKY/WX    TMP DP  RH WIND       PRES   REMARKS
BIG PINEY      FAIR      31  27  85 SE12      30.01F WCI  22
PINEDALE       CLOUDY    32  28  86 SE13      30.01F WCI  22
DUBOIS         CLOUDY    37  27  65 W25G39    29.86F WCI  26
LANDER         FAIR      49  29  46 SW31G48   29.83R
RIVERTON       FAIR      50  27  40 SW26G32   29.88R
CASPER         FAIR      52  30  43 SW32G46   29.91R
DOUGLAS        FAIR      55  27  34 W28G36    29.90S

$$
WYZ021-027>030-104>119-210000-
SOUTHERN WYOMING

CITY           SKY/WX    TMP DP  RH WIND       PRES   REMARKS
EVANSTON       CLOUDY    39  28  64 SW16      30.00F WCI  30
KEMMERER         N/A     39  30  70 SW5       30.02S
FORT BRIDGER   MOCLDY    41  32  71 E9        30.04S
ROCK SPRINGS   PTSUNNY   42  30  62 S6        30.03S
DIXON            N/A     43  34  69 SW14G21   30.14F
RAWLINS        FAIR      45  29  53 SW33G52   30.01R
SARATOGA       FAIR      43  27  52 SW13G25   30.08S
LARAMIE        FAIR      46  19  34 SW22      30.03F
CHEYENNE       FAIR      53  17  24 SW24G33   30.00S
TORRINGTON     FAIR      62  19  19 W22G31    29.90S
PINE BLUFFS    FAIR      59  16  18 NW22G30   29.97F

$$



USA.gov is the U.S. government's official web portal to all federal, state and local government web resources and services.